| time (UTC) | temp C | wind direction | speed KPH | gust KPH | rain 1hr cm | rain 24hr cm | rain mn cm | humidity % | barometer mb |
| 20260504081513 | 18 | 201 | 11.3 | 19.3 | 0.00 | 0.00 | 0.00 | 59 | 1015.4 |
| 20260504044604 | 18 | 194 | 16.1 | 24.1 | 0.00 | 0.00 | 0.00 | 62 | 1014.8 |
| 20260504043056 | 18 | 181 | 14.5 | 20.9 | 0.00 | 0.00 | 0.00 | 62 | 1014.7 |
| 20260504041554 | 18 | 224 | 11.3 | 16.1 | 0.00 | 0.00 | 0.00 | 62 | 1014.7 |
| 20260504040056 | 18 | 222 | 8.0 | 12.9 | 0.00 | 0.00 | 0.00 | 62 | 1014.8 |
| 20260504040052 | 18 | 359 | 8.0 | 12.9 | 0.00 | 0.00 | 0.00 | 62 | 1014.8 |
| 20260504034531 | 18 | 177 | 8.0 | 16.1 | 0.00 | 0.00 | 0.00 | 62 | 1014.9 |
| 20260504033025 | 18 | 181 | 11.3 | 16.1 | 0.00 | 0.00 | 0.00 | 62 | 1015.0 |
| 20260504033018 | 18 | 185 | 11.3 | 16.1 | 0.00 | 0.00 | 0.00 | 62 | 1015.0 |
| 20260504031515 | 18 | 187 | 4.8 | 16.1 | 0.00 | 0.00 | 0.00 | 62 | 1015.1 |
| 20260504030013 | 18 | 168 | 9.7 | 19.3 | 0.00 | 0.00 | 0.00 | 62 | 1015.3 |
| 20260504024518 | 18 | 202 | 8.0 | 16.1 | 0.00 | 0.00 | 0.00 | 62 | 1015.5 |
| 20260504023012 | 18 | 187 | 6.4 | 14.5 | 0.00 | 0.00 | 0.00 | 62 | 1015.3 |
| 20260504021509 | 18 | 206 | 8.0 | 14.5 | 0.00 | 0.00 | 0.00 | 62 | 1015.4 |
| 20260504020014 | 18 | 200 | 12.9 | 19.3 | 0.00 | 0.00 | 0.00 | 62 | 1015.4 |
| 20260504014505 | 18 | 187 | 9.7 | 16.1 | 0.00 | 0.00 | 0.00 | 62 | 1015.5 |
| 20260504013008 | 18 | 201 | 9.7 | 19.3 | 0.00 | 0.00 | 0.00 | 62 | 1015.5 |
| 20260504011600 | 18 | 181 | 8.0 | 14.5 | 0.00 | 0.00 | 0.00 | 61 | 1015.7 |
| 20260504010105 | 18 | 174 | 11.3 | 16.1 | 0.00 | 0.00 | 0.00 | 61 | 1015.7 |
| 20260504004601 | 18 | 189 | 9.7 | 16.1 | 0.00 | 0.00 | 0.00 | 61 | 1015.7 |
| 20260504003053 | 18 | 135 | 6.4 | 12.9 | 0.00 | 0.00 | 0.00 | 61 | 1015.9 |
| 20260504001606 | 18 | 186 | 8.0 | 14.5 | 0.00 | 0.00 | 0.00 | 61 | 1015.9 |
| 20260504000045 | 18 | 180 | 4.8 | 16.1 | 0.00 | 0.00 | 0.00 | 62 | 1016.0 |
| 20260503234542 | 18 | 222 | 11.3 | 19.3 | 0.00 | 0.00 | 0.00 | 62 | 1016.0 |
| 20260503233042 | 18 | 181 | 16.1 | 20.9 | 0.00 | 0.00 | 0.00 | 63 | 1016.1 |
| 20260503231539 | 18 | 176 | 6.4 | 17.7 | 0.00 | 0.00 | 0.00 | 63 | 1016.1 |
| 20260503230039 | 18 | 175 | 8.0 | 17.7 | 0.00 | 0.00 | 0.00 | 63 | 1016.1 |
| 20260503224538 | 19 | 190 | 8.0 | 12.9 | 0.00 | 0.00 | 0.00 | 63 | 1016.2 |
| 20260503223041 | 19 | 176 | 6.4 | 11.3 | 0.00 | 0.00 | 0.00 | 62 | 1016.2 |
| 20260503221541 | 18 | 142 | 9.7 | 12.9 | 0.00 | 0.00 | 0.00 | 62 | 1016.3 |
| 20260503220044 | 18 | 175 | 6.4 | 12.9 | 0.00 | 0.00 | 0.00 | 63 | 1016.4 |
| 20260503214536 | 18 | 175 | 6.4 | 11.3 | 0.00 | 0.00 | 0.00 | 64 | 1016.6 |
| 20260503213040 | 18 | 135 | 11.3 | 14.5 | 0.00 | 0.00 | 0.00 | 65 | 1016.6 |
| 20260503211507 | 18 | 130 | 11.3 | 16.1 | 0.00 | 0.00 | 0.00 | 65 | 1016.6 |
| 20260503210003 | 18 | 143 | 11.3 | 16.1 | 0.00 | 0.00 | 0.00 | 65 | 1016.6 |
| 20260503204534 | 18 | 171 | 9.7 | 17.7 | 0.00 | 0.00 | 0.00 | 65 | 1016.5 |
| 20260503203036 | 18 | 96 | 11.3 | 16.1 | 0.00 | 0.00 | 0.00 | 65 | 1016.4 |
| 20260503201502 | 18 | 102 | 12.9 | 16.1 | 0.00 | 0.00 | 0.00 | 65 | 1016.3 |
| 20260503200004 | 18 | 94 | 14.5 | 19.3 | 0.00 | 0.00 | 0.00 | 65 | 1016.1 |
| 20260503194533 | 18 | 88 | 11.3 | 16.1 | 0.00 | 0.00 | 0.00 | 65 | 1015.9 |
| 20260503193035 | 18 | 87 | 12.9 | 17.7 | 0.00 | 0.00 | 0.00 | 65 | 1015.7 |
| 20260503191529 | 18 | 88 | 12.9 | 17.7 | 0.00 | 0.00 | 0.00 | 65 | 1015.3 |
| 20260503190028 | 18 | 83 | 6.4 | 17.7 | 0.00 | 0.00 | 0.00 | 65 | 1015.2 |
| 20260503184529 | 18 | 65 | 12.9 | 19.3 | 0.00 | 0.00 | 0.00 | 64 | 1014.9 |
| 20260503183035 | 18 | 81 | 12.9 | 19.3 | 0.00 | 0.00 | 0.00 | 64 | 1014.8 |
| 20260503181623 | 18 | 95 | 12.9 | 19.3 | 0.00 | 0.00 | 0.00 | 63 | 1014.8 |
| 20260503180134 | 18 | 78 | 11.3 | 19.3 | 0.00 | 0.00 | 0.00 | 63 | 1014.6 |
| 20260503174557 | 18 | 116 | 14.5 | 19.3 | 0.00 | 0.00 | 0.00 | 63 | 1014.4 |
| 20260503173059 | 18 | 93 | 12.9 | 20.9 | 0.00 | 0.00 | 0.00 | 63 | 1014.2 |
| 20260503171553 | 18 | 112 | 12.9 | 20.9 | 0.00 | 0.00 | 0.00 | 63 | 1014.2 |